Flight Track Log - Related Links

Times and Time Zones

All times are in EDT time to prevent confusion due to time zone crossing. See the N4100P flight status page for this flight to view local times or setup timezone preferences in your user account.

Time Position Orientation Groundspeed Altitude Reporting Facility
EDT Latitude Longitude Course Direction KTS MPH feet Rate Location/Type
10:05AM 38.3000 -78.8500 38° Northeast 110 127 3,000  Level Potomac TRACON
10:06AM 38.3167 -78.8167 57° Northeast 123 142 3,800 842 Climbing Potomac TRACON
10:06AM 38.3667 -78.8000 15° North 119 137 4,600 632 Climbing Potomac TRACON
10:07AM 38.3833 -78.7833 38° Northeast 127 146 5,000 150 Climbing Potomac TRACON
10:08AM 38.4167 -78.7500 38° Northeast 143 165 4,900  Descending Potomac TRACON
10:09AM 38.4333 -78.7167 57° Northeast 136 157 5,000 105 Climbing Potomac TRACON
10:10AM 38.3789 -78.7711 38° Northeast  Level FlightAware Approximate
10:10AM 38.4667 -78.6667 50° Northeast 139 160 5,100  Level Potomac TRACON
10:11AM 38.4972 -78.6478 26° Northeast 140 161 4,900 -435 Descending Washington Center
10:12AM 38.5272 -78.6197 36° Northeast 130 150 4,200 -550 Descending Washington Center
10:13AM 38.5525 -78.6050 24° Northeast 125 144 3,800 -595 Descending Washington Center
10:14AM 38.5739 -78.5844 37° Northeast 113 130 3,000 610 Descending Washington Center
10:15AM 38.6058 -78.5619 29° Northeast 113 130 5,000 1,017 Climbing Washington Center
10:16AM 38.6314 -78.5364 38° Northeast 113 130 5,000  Level Washington Center
10:17AM 38.6592 -78.5108 36° Northeast 113 130 5,000 200 Level Washington Center
10:21AM 38.6592 -78.5108 218° Southwest 113 130 6,000 199 Climbing Washington Center
10:22AM 38.7431 -78.4025 45° Northeast 113 130 6,000 -639 Level Washington Center
10:23AM 38.7689 -78.3581 53° Northeast 130 150 4,700 -198 Descending Washington Center
10:24AM 38.7864 -78.3269 54° Northeast 118 136 5,600 706 Climbing Washington Center
10:25AM 38.8061 -78.2903 55° Northeast 118 136 6,100 150 Climbing Washington Center
10:26AM 38.8278 -78.2483 56° Northeast 126 145 5,900 -50 Descending Washington Center
10:27AM 38.8597 -78.2203 34° Northeast 131 151 6,000 150 Climbing Washington Center
10:28AM 38.8714 -78.2528 295° West 95 109 6,200 50 Climbing Washington Center
10:29AM 38.8436 -78.2808 218° Southwest 61 70 6,100 -50 Descending Washington Center
10:30AM 38.8200 -78.3175 230° Southwest 104 120 6,100  Level Washington Center
10:31AM 38.7903 -78.3431 214° Southwest 123 142 6,100 -51 Level Washington Center
10:32AM 38.7606 -78.3683 214° Southwest 130 150 6,000 -50 Descending Washington Center
10:33AM 38.7325 -78.3994 221° Southwest 135 155 6,000  Level Washington Center
10:34AM 38.7069 -78.4250 218° Southwest 135 155 6,000 50 Level Washington Center
10:35AM 38.6792 -78.4531 218° Southwest 135 155 6,100  Climbing Washington Center
10:36AM 38.6556 -78.4867 228° Southwest 135 155 6,000  Descending Washington Center
10:37AM 38.6256 -78.5122 214° Southwest 135 155 6,100  Climbing Washington Center
10:38AM 38.5981 -78.5378 216° Southwest 135 155 6,000 -49 Descending Washington Center
10:39AM 38.5703 -78.5658 218° Southwest 135 155 6,000 50 Level Washington Center
10:40AM 38.5444 -78.5967 223° Southwest 135 155 6,100  Climbing Washington Center
10:41AM 38.5186 -78.6300 225° Southwest 130 150 6,000 -50 Descending Washington Center
10:42AM 38.4867 -78.6500 206° Southwest 130 150 6,000 49 Level Washington Center
10:43AM 38.4608 -78.6808 223° Southwest 130 150 6,100 50 Climbing Washington Center
10:44AM 38.4392 -78.7142 230° Southwest 130 150 6,100 -51 Level Washington Center
10:45AM 38.4033 -78.7261 195° South 125 144 6,000 -33 Descending Washington Center
10:48AM 38.3333 -78.7667 204° Southwest 121 139 6,000  Level Potomac TRACON
10:49AM 38.3000 -78.7833 201° Southwest 129 148 6,000  Level Potomac TRACON
10:50AM 38.2667 -78.8000 201° Southwest 127 146 6,000  Level Potomac TRACON
10:51AM 38.2333 -78.8167 201° Southwest 132 152 6,000 50 Level Potomac TRACON
10:52AM 38.2167 -78.8500 238° Southwest 121 139 6,100 47 Climbing Potomac TRACON
10:53AM 38.1833 -78.8833 218° Southwest 126 145 6,100  Level Potomac TRACON
10:54AM 38.1667 -78.9167 238° Southwest 123 142 6,100  Level Potomac TRACON
10:55AM 38.1333 -78.9333 201° Southwest 127 146 6,100  Level Potomac TRACON
10:56AM 38.1000 -78.9500 201° Southwest 133 153 6,100  Level Potomac TRACON
10:57AM 38.0667 -78.9500 180° South 122 140 6,100 -48 Level Potomac TRACON
10:58AM 38.0500 -78.9667 218° Southwest 150 173 6,000 -381 Descending Potomac TRACON
10:59AM 38.0667 -79.0000 302° West 129 148 5,300 -730 Descending Potomac TRACON
11:00AM 38.0833 -79.0333 302° West 122 140 4,600 -397 Descending Potomac TRACON
11:01AM 38.1167 -79.0333 360° North 118 136 4,500 -238 Descending Potomac TRACON
11:02AM 38.1500 -79.0167 21° North 91 105 4,100 -526 Descending Potomac TRACON
11:03AM 38.1667 -79.0000 38° Northeast 92 106 3,500 -600 Descending Potomac TRACON
11:04AM 38.1833 -78.9833 38° Northeast 89 102 2,900 -347 Descending Potomac TRACON
11:05AM 38.2000 -78.9667 38° Northeast 85 98 2,800 -397 Descending Potomac TRACON
11:06AM 38.2167 -78.9333 58° Northeast 92 106 2,100 -550 Descending Potomac TRACON
11:07AM 38.2333 -78.9167 38° Northeast 90 104 1,700 -365 Descending Potomac TRACON
11:08AM 38.2500 -78.9000 38° Northeast 86 99 1,400 -149 Descending Potomac TRACON
11:09AM 38.2667 -78.9000 360° North 85 98 1,400  Level Potomac TRACON

Login

Don't have an account? Register now (free) for customized features, flight alerts, and more!